Location: Dresden
(51.0500°N, 13.7500°E)
Time: 22:06:26
(UTC+00:00)

ISS - Pass Details

Date: 31 March 2019
Orbit: 408 x 410 km, 51.6° (Epoch: 22 April)

Event Time Altitude Azimuth Distance (km) Brightness Sun altitude
Rises 19:00:13 0° 280° (W) 2,340 1.7 -13.5°
Reaches altitude 10° 19:02:18 10° 280° (W) 1,477 0.3 -13.8°
Maximum altitude 19:05:37 90° 356° (N) 414 -3.9 -14.3°
Enters shadow 19:07:04 31° 101° (E) 748 -3.0 -14.5°
